Regional Weather Roundup
Issued by NWS

Home | Current Version | Previous Version | Graphics & Text | Print | Product List | Glossary On
Versions: 1 2 3 4 5 6 7 8 9 10 11 12 13 14 15 16 17 18 19 20 21 22 23 24 25 26 27 28 29 30 31 32 33 34 35 36 37 38 39 40 41 42 43 44 45 46 47 48 49 50
000
ASUS43 KOAX 121502
RWRNE

WEATHER ROUNDUP FOR NEBRASKA
NATIONAL WEATHER SERVICE OMAHA NE
1000 AM CDT SAT JUL 12 2014

NOTES: SATELLITE DATA IS BEING USED TO AUGMENT CLOUD COVER ABOVE
       12000 FEET.
       "FAIR" INDICATES FEW OR NO CLOUDS BELOW 12,000 FEET WITH NO
       SIGNIFICANT WEATHER AND/OR OBSTRUCTIONS TO VISIBILITY.

  * THESE STATIONS DO NOT REPORT WEATHER SUCH AS RAIN...SNOW OR FOG.

NEZ001>004-019>022-054>056-121600-
NEBRASKA PANHANDLE

CITY           SKY/WX    TMP DP  RH WIND       PRES   REMARKS
SCOTTSBLUFF    CLOUDY    67  62  84 W5        30.21S
ALLIANCE       CLOUDY    65  60  84 NE8       30.20R
CHADRON        MOSUNNY   70  59  68 S3        30.17R
KIMBALL        CLOUDY    63  61  94 N13       30.23S
SIDNEY         PTSUNNY   68  60  75 N14       30.21R
$$

NEZ057>060-069>072-079>082-121600-
SOUTHWEST NEBRASKA

CITY           SKY/WX    TMP DP  RH WIND       PRES   REMARKS
NORTH PLATTE   CLOUDY    70  65  84 N17       30.09S
IMPERIAL       CLOUDY    69  66  90 N18       30.11R
LEXINGTON      PTSUNNY   76  69  79 N6        30.03R
MCCOOK         PTSUNNY   79  70  74 N13       30.04R
OGALLALA       CLOUDY    67  64  90 N10       30.14R
$$

NEZ005>010-023>029-035>040-094-121600-
NORTH CENTRAL NEBRASKA

CITY           SKY/WX    TMP DP  RH WIND       PRES   REMARKS
VALENTINE      CLOUDY    68  65  90 N10       30.13R
AINSWORTH      CLOUDY    68  67  96 NE3       30.12R
BROKEN BOW     CLOUDY    71  68  90 NE8       30.07R
O`NEILL        CLOUDY    67  64  88 N8        30.09S
ORD            CLOUDY    71  66  84 N12       30.04S
THEDFORD       CLOUDY    70  66  88 N8        30.12F
$$

NEZ041-046>049-061>064-073>077-083>087-121600-
SOUTH CENTRAL NEBRASKA

CITY           SKY/WX    TMP DP  RH WIND       PRES   REMARKS
GRAND ISLAND   CLOUDY    77  66  68 S5        30.00S
AURORA         PTSUNNY   77  69  75 S7        30.00R
HASTINGS       PTSUNNY   77  64  64 VRB5      30.00S
HEBRON         MOSUNNY   83  66  55 SW10      30.00S
HOLDREGE       MOSUNNY   77  63  61 CALM      30.01S
KEARNEY *      CLOUDY    75  64  69 SE7       30.01S
YORK           PTSUNNY   77  68  73 S7        30.00R
$$

NEZ011>018-030>034-042>045-121600-
NORTHEAST NEBRASKA

CITY           SKY/WX    TMP DP  RH WIND       PRES   REMARKS
NORFOLK        LGT RAIN  70  67  90 N5        30.02R FOG
ALBION         CLOUDY    69  68  96 N6        30.04R
BLAIR          PTSUNNY   75  68  78 SE7       29.98F
FREMONT        CLOUDY    76  70  80 E6        29.99S
TEKAMAH        CLOUDY    75  69  81 E6        29.98F
WAYNE          LGT RAIN  72  69  91 NW3       30.03R
$$

NEZ050>053-065>068-078-088>093-121600-
SOUTHEAST NEBRASKA

CITY           SKY/WX    TMP DP  RH WIND       PRES   REMARKS
LINCOLN        MOSUNNY   81  68  64 S10       29.98F
OMAHA EPPLEY   CLOUDY    77  70  79 SE10      29.97F
BEATRICE       MOSUNNY   79  66  64 SW9       30.00F
FALLS CITY     PTSUNNY   82  70  66 SE7       30.01F
NEBRASKA CITY  PTSUNNY   82  67  62 S12       30.00F
PLATTSMOUTH    PTSUNNY   81  69  67 S6        29.99F
$$

NEZ044-045-051>053-067-121600-
OMAHA AREA

CITY           SKY/WX    TMP DP  RH WIND       PRES   REMARKS
OMAHA EPPLEY   CLOUDY    77  70  79 SE10      29.97F
BLAIR          PTSUNNY   75  68  78 SE7       29.98F
FREMONT        CLOUDY    76  70  80 E6        29.99S
MILLARD        PTSUNNY   77  71  83 NE7       29.97F
PLATTSMOUTH    PTSUNNY   81  69  67 S6        29.99F
WAHOO          FAIR      77  71  83 SE5       29.98R
$$


USA.gov is the U.S. government's official web portal to all federal, state and local government web resources and services.